[[{"header":{"parameterUnit":"m.s-1","parameterCategory":1,"la1":30.2991,"la2":30.254,"lo1":-89.0895,"lo2":-89.0444,"dy":0.0017,"dx":0.0017,"nx":28,"ny":28,"refTime":"2026-02-14T03:00:00:Z","depth":0,"parameterNumber":2,"parameterNumberName":"U-component_of_WINDS"},"data":[0,0,0,0,0,0,0,0,0,0,0,0,0,0,0,0,0,0,0,0,0,0,0,0,0,0,0,0,0,0,0,0,0,0,0,0,0,0,0,0,0,0,0,0,0,0,0,0,0,0,0,0,0,0,0,0,0,0,-1.7491,-1.7492,0,-1.7531,-1.7532,-1.7532,-1.7506,-1.7505,-1.7504,-1.7502,-1.7545,-1.7547,-1.755,0,0,0,0,0,0,0,0,0,0,0,0,0,-1.7396,-1.7398,-1.7491,-1.7492,-1.7492,-1.7531,-1.7532,-1.7532,-1.7506,-1.7505,-1.7503,-1.7502,-1.7544,-1.7547,-1.755,0,0,0,0,0,0,0,0,0,0,0,0,0,-1.7437,-1.7398,-1.7491,-1.7484,-1.7484,-1.7531,-1.7532,-1.7532,-1.7506,-1.7505,-1.7503,-1.7501,-1.7544,-1.7547,-1.755,-1.7608,0,0,-1.7561,-1.7562,0,0,0,0,0,0,0,0,-1.7434,-1.744,-1.7485,-1.7485,-1.7484,-1.7512,-1.7514,-1.7558,-1.7507,-1.7498,-1.7502,-1.75,-1.7536,-1.754,-1.7551,-1.761,-1.7611,-1.7561,-1.7563,-1.7564,-1.7565,0,0,0,0,0,0,0,-1.7432,-1.7438,-1.7507,-1.7485,-1.7485,-1.748,-1.7484,-1.7522,-1.7527,-1.7499,-1.7497,-1.7502,-1.7535,-1.7548,-1.7552,-1.7612,-1.7561,-1.7564,-1.7566,-1.7567,-1.7721,-1.7723,0,0,0,0,0,0,-1.7429,-1.7436,-1.7506,-1.7508,-1.7454,-1.7483,-1.7487,-1.7505,-1.7526,-1.7527,-1.7503,-1.75,-1.7543,-1.7548,-1.7553,-1.7623,-1.7564,-1.7568,-1.757,-1.7719,-1.7722,-1.7724,0,0,0,0,0,0,-1.7427,-1.7435,-1.7504,-1.7472,-1.748,-1.7486,-1.7507,-1.7507,-1.7519,-1.753,-1.753,-1.7515,-1.7542,-1.7549,-1.7594,-1.7624,-1.7569,-1.7572,-1.7717,-1.772,-1.7723,-1.7761,0,0,0,0,0,0,-1.7424,-1.7435,-1.7456,-1.7472,-1.7482,-1.7544,-1.7508,-1.7509,-1.7525,-1.7521,-1.7541,-1.7542,-1.7541,-1.759,-1.7598,-1.7627,-1.7575,-1.7714,-1.7718,-1.7722,-1.7757,-1.7765,-1.7772,0,0,0,0,0,-1.7421,-1.7465,-1.7457,-1.7466,-1.7508,-1.7546,-1.7551,-1.7548,-1.7527,-1.7549,-1.7556,-1.7542,-1.7619,-1.7594,-1.7604,-1.7635,-1.7712,-1.7717,-1.7721,-1.7754,-1.7764,-1.7772,0,0,0,0,0,0,-1.7452,-1.7467,-1.7458,-1.7509,-1.7526,-1.7541,-1.7568,-1.7558,-1.7582,-1.7578,-1.7573,-1.7578,-1.7626,-1.7635,-1.7607,-1.7692,-1.7663,-1.7669,-1.7684,-1.7694,-1.7701,-1.7698,-1.7578,0,0,0,0,0,-1.7465,-1.7493,-1.7505,-1.7549,-1.7558,-1.7562,-1.7578,-1.7574,-1.7592,-1.7599,-1.7609,-1.7628,-1.7657,-1.7676,-1.7702,-1.7759,-1.7763,-1.7785,-1.7792,-1.7798,-1.7804,-1.7835,-1.7845,-1.7739,-1.7739,-1.7739,0,0,-1.7492,-1.7504,-1.7522,-1.7556,-1.7568,-1.7599,-1.7568,-1.7601,-1.7624,-1.7604,-1.7648,-1.7657,-1.7677,-1.7729,-1.7752,-1.7738,-1.7834,-1.7804,-1.7808,-1.7811,-1.7841,-1.7851,-1.786,-1.7742,-1.7741,-1.7741,0,0,-1.7556,-1.7567,-1.7606,-1.7619,-1.7639,-1.7641,-1.7651,-1.7668,-1.7672,-1.7716,-1.7702,-1.773,-1.7779,-1.7795,-1.7809,-1.7881,-1.7869,-1.789,-1.7928,-1.7959,-1.7968,-1.7975,-1.8002,-1.8011,-1.7896,-1.7896,-1.7896,0,-1.7587,-1.7631,-1.7627,-1.7661,-1.7677,-1.766,-1.77,-1.7714,-1.7741,-1.7753,-1.7737,-1.7799,-1.7811,-1.7867,-1.7885,-1.7897,-1.7908,-1.7888,-1.7967,-1.7974,-1.7981,-1.8006,-1.8016,-1.7898,-1.7898,-1.7898,-1.7898,0,-1.7669,-1.77,-1.7729,-1.7756,-1.7775,-1.7812,-1.7814,-1.7834,-1.7829,-1.7833,-1.7879,-1.7894,-1.7924,-1.7937,-1.7932,-1.7993,-1.7983,-1.7967,-1.7937,-1.7994,-1.8017,-1.8027,-1.7902,-1.7901,-1.79,-1.79,0,0,-1.7753,-1.7778,-1.7788,-1.7801,-1.7822,-1.7847,-1.7884,-1.7913,-1.7931,-1.7951,-1.7982,-1.8025,-1.801,-1.8027,-1.8024,-1.8051,-1.8108,-1.8031,-1.8032,-1.8046,-1.8177,-1.8189,-1.82,-1.8101,-1.8103,-1.8104,-1.8175,0,-1.7819,-1.7882,-1.788,-1.7939,-1.7969,-1.7954,-1.7986,-1.8004,-1.8009,-1.8036,-1.8043,-1.8073,-1.8051,-1.8061,-1.8087,-1.8096,-1.8135,-1.809,-1.8131,-1.8132,-1.8126,-1.8213,-1.8226,-1.8292,-1.8185,-1.8186,-1.8187,0,-1.7904,-1.7927,-1.7989,-1.8007,-1.802,-1.8049,-1.8076,-1.8101,-1.8121,-1.8123,-1.8142,-1.8136,-1.8174,-1.8144,-1.8198,-1.8168,-1.8184,-1.8191,-1.8194,-1.8198,-1.8163,-1.8219,-1.8313,-1.8323,-1.8202,-1.82,-1.8199,0,-1.796,-1.8007,-1.805,-1.8061,-1.8083,-1.8104,-1.8115,-1.8133,-1.8151,-1.8175,-1.8187,-1.8215,-1.8231,-1.8254,-1.8256,-1.8233,-1.8311,-1.828,-1.8315,-1.8315,-1.8331,-1.833,-1.843,-1.8342,-1.8342,-1.8341,-1.8341,0,-1.8034,-1.8073,-1.8076,-1.8103,-1.8146,-1.8144,-1.8188,-1.8196,-1.8212,-1.8242,-1.8231,-1.8259,-1.8259,-1.8288,-1.829,-1.8335,-1.8342,-1.8346,-1.8346,-1.8347,-1.8347,-1.8358,-1.8354,-1.8344,-1.8343,-1.8343,-1.8342,0,-1.8104,-1.8107,-1.8154,-1.8171,-1.8176,-1.8208,-1.8223,-1.825,-1.8255,-1.8292,-1.83,-1.8309,-1.8342,-1.8346,-1.8386,-1.8387,-1.8441,-1.8436,-1.8435,-1.8434,-1.8469,-1.8465,-1.8579,-1.8594,-1.8496,-1.8497,-1.8497,0,-1.8151,-1.8181,-1.8201,-1.822,-1.8231,-1.8261,-1.8279,-1.8279,-1.8298,-1.8324,-1.8348,-1.838,-1.8406,-1.8461,-1.8471,-1.8501,-1.8497,-1.8535,-1.8502,-1.8502,-1.8499,-1.8497,-1.85,-1.8541,-1.8542,-1.8543,-1.8544,0,-1.8234,-1.8235,-1.8261,-1.8289,-1.8311,-1.8333,-1.8354,-1.837,-1.8372,-1.8395,-1.8429,-1.8449,-1.8489,-1.8522,-1.8552,-1.8564,-1.8555,-1.8554,-1.8564,-1.8566,-1.8564,-1.8566,-1.8452,-1.8552,-1.8551,-1.855,-1.855,-1.855,-1.8295,-1.8321,-1.834,-1.837,-1.8385,-1.8405,-1.8431,-1.8439,-1.8467,-1.85,-1.8498,-1.8536,-1.8556,-1.8596,-1.861,-1.864,-1.8628,-1.8642,-1.8646,-1.8649,-1.8653,-1.8559,-1.8646,-1.8646,-1.8646,-1.8645,-1.8645,0,-1.8378,-1.839,-1.8418,-1.8447,-1.8471,-1.846,-1.8482,-1.8504,-1.8537,-1.8557,-1.8582,-1.8622,-1.8654,-1.8668,-1.87,-1.8721,-1.8718,-1.873,-1.8728,-1.8732,-1.8662,-1.865,-1.8732,-1.8732,-1.8732,-1.8732,-1.8732,-1.8732,-1.8424,-1.8468,-1.8471,-1.8523,-1.8535,-1.8571,-1.8585,-1.8604,-1.862,-1.8664,-1.8691,-1.8699,-1.8717,-1.875,-1.878,-1.8783,-1.8795,-1.8809,-1.8811,-1.8745,-1.8736,-1.8728,-1.8717,-1.8812,-1.8812,-1.8878,-1.8878,-1.8879]},{"header":{"parameterUnit":"m.s-1","parameterCategory":1,"la1":30.2991,"la2":30.254,"lo1":-89.0895,"lo2":-89.0444,"dy":0.0017,"dx":0.0017,"nx":28,"ny":28,"refTime":"2026-02-14T03:00:00:Z","depth":0,"parameterNumber":3,"parameterNumberName":"V-component_of_WINDS"},"data":[0,0,0,0,0,0,0,0,0,0,0,0,0,0,0,0,0,0,0,0,0,0,0,0,0,0,0,0,0,0,0,0,0,0,0,0,0,0,0,0,0,0,0,0,0,0,0,0,0,0,0,0,0,0,0,0,0,0,0.5231,0.5231,0,0.5226,0.5226,0.5226,0.5225,0.5225,0.5225,0.5225,0.5218,0.5218,0.5218,0,0,0,0,0,0,0,0,0,0,0,0,0,0.5239,0.5239,0.5231,0.5231,0.5231,0.5226,0.5226,0.5226,0.5225,0.5225,0.5225,0.5225,0.5218,0.5218,0.5218,0,0,0,0,0,0,0,0,0,0,0,0,0,0.5235,0.5238,0.5231,0.523,0.523,0.5226,0.5226,0.5226,0.5225,0.5225,0.5225,0.5225,0.5218,0.5218,0.5218,0.5215,0,0,0.5217,0.5217,0,0,0,0,0,0,0,0,0.5235,0.5234,0.523,0.523,0.523,0.5226,0.5226,0.5222,0.5225,0.5226,0.5225,0.5225,0.5221,0.522,0.5219,0.5215,0.5214,0.5217,0.5216,0.5216,0.5216,0,0,0,0,0,0,0,0.5235,0.5235,0.5229,0.523,0.523,0.5229,0.5229,0.5226,0.5223,0.5226,0.5226,0.5226,0.5221,0.5219,0.5219,0.5214,0.5217,0.5216,0.5216,0.5216,0.5208,0.5208,0,0,0,0,0,0,0.5236,0.5235,0.5229,0.5229,0.5233,0.5229,0.5228,0.5227,0.5223,0.5223,0.5226,0.5226,0.522,0.5219,0.5219,0.5216,0.5216,0.5216,0.5216,0.5208,0.5208,0.5208,0,0,0,0,0,0,0.5236,0.5235,0.523,0.5232,0.5231,0.5229,0.5228,0.5227,0.5226,0.5223,0.5222,0.5225,0.522,0.5219,0.5216,0.5215,0.5216,0.5216,0.5208,0.5208,0.5208,0.5209,0,0,0,0,0,0,0.5236,0.5235,0.5235,0.5232,0.5231,0.5227,0.5227,0.5227,0.5226,0.5226,0.5222,0.5222,0.522,0.5217,0.5216,0.5215,0.5215,0.5208,0.5208,0.5208,0.5209,0.5209,0.5209,0,0,0,0,0,0.5237,0.5235,0.5235,0.5234,0.523,0.5227,0.5227,0.5225,0.5226,0.5225,0.5223,0.5222,0.5216,0.5216,0.5215,0.5214,0.5208,0.5208,0.5208,0.5209,0.5209,0.5209,0,0,0,0,0,0,0.5236,0.5234,0.5234,0.5231,0.523,0.5227,0.5226,0.5225,0.5223,0.5223,0.5221,0.522,0.5217,0.5216,0.5216,0.5212,0.5212,0.5212,0.5213,0.5213,0.5213,0.5213,0.5215,0,0,0,0,0,0.5236,0.5235,0.5233,0.523,0.523,0.5228,0.5227,0.5226,0.5224,0.5223,0.5221,0.5218,0.5216,0.5215,0.5212,0.5209,0.5209,0.5208,0.5208,0.5208,0.5208,0.5207,0.5206,0.5208,0.5208,0.5208,0,0,0.5235,0.5234,0.5233,0.523,0.5229,0.5227,0.5227,0.5225,0.5224,0.5222,0.522,0.5218,0.5215,0.5213,0.5211,0.5211,0.5207,0.5208,0.5208,0.5208,0.5206,0.5206,0.5206,0.5208,0.5208,0.5208,0,0,0.5233,0.5232,0.523,0.5229,0.5227,0.5226,0.5226,0.5224,0.5223,0.522,0.5219,0.5218,0.5214,0.5212,0.521,0.5209,0.5208,0.5208,0.5208,0.5207,0.5207,0.5206,0.5206,0.5206,0.5208,0.5208,0.5208,0,0.5232,0.523,0.5229,0.5228,0.5227,0.5226,0.5224,0.5223,0.522,0.522,0.522,0.5215,0.5213,0.521,0.521,0.5209,0.5208,0.5208,0.5207,0.5207,0.5206,0.5206,0.5206,0.5208,0.5208,0.5208,0.5208,0,0.5229,0.5228,0.5226,0.5225,0.5223,0.5222,0.5221,0.522,0.5219,0.5218,0.5216,0.5214,0.5211,0.521,0.5209,0.5207,0.5207,0.5207,0.5207,0.5206,0.5206,0.5206,0.5208,0.5208,0.5208,0.5208,0,0,0.5226,0.5225,0.5224,0.5224,0.5222,0.5221,0.5219,0.5217,0.5216,0.5215,0.5213,0.521,0.521,0.5209,0.5208,0.5207,0.5206,0.5207,0.5207,0.5207,0.5204,0.5204,0.5204,0.5206,0.5206,0.5206,0.5204,0,0.5224,0.5221,0.5221,0.5218,0.5217,0.5217,0.5216,0.5215,0.5214,0.5212,0.5211,0.5209,0.5209,0.5209,0.5208,0.5206,0.5205,0.5206,0.5204,0.5204,0.5204,0.5204,0.5204,0.5202,0.5204,0.5204,0.5204,0,0.522,0.5219,0.5217,0.5216,0.5216,0.5214,0.5213,0.5212,0.5211,0.521,0.5209,0.5208,0.5207,0.5207,0.5205,0.5206,0.5205,0.5204,0.5204,0.5203,0.5204,0.5203,0.5202,0.5202,0.5204,0.5204,0.5204,0,0.5218,0.5216,0.5215,0.5214,0.5213,0.5213,0.5212,0.5211,0.521,0.5209,0.5208,0.5207,0.5206,0.5205,0.5204,0.5204,0.5202,0.5202,0.5201,0.5201,0.52,0.52,0.5199,0.52,0.52,0.52,0.52,0,0.5215,0.5214,0.5214,0.5213,0.5212,0.5212,0.521,0.5209,0.5209,0.5208,0.5207,0.5206,0.5205,0.5204,0.5203,0.5202,0.5201,0.5201,0.52,0.5201,0.5201,0.52,0.52,0.52,0.52,0.52,0.52,0,0.5213,0.5213,0.5211,0.5211,0.5211,0.521,0.5209,0.5208,0.5208,0.5206,0.5206,0.5205,0.5204,0.5203,0.5201,0.5201,0.5199,0.5199,0.52,0.5199,0.5199,0.5199,0.5197,0.5196,0.5198,0.5198,0.5198,0,0.5211,0.521,0.521,0.5209,0.5209,0.5208,0.5207,0.5207,0.5207,0.5206,0.5205,0.5204,0.5203,0.5201,0.52,0.5199,0.5198,0.5198,0.5198,0.5198,0.5198,0.5198,0.5198,0.5197,0.5197,0.5197,0.5197,0,0.5207,0.5208,0.5207,0.5207,0.5206,0.5206,0.5205,0.5205,0.5205,0.5204,0.5203,0.5202,0.5201,0.52,0.5199,0.5198,0.5198,0.5197,0.5197,0.5197,0.5198,0.5197,0.5199,0.5197,0.5197,0.5197,0.5197,0.5197,0.5205,0.5204,0.5204,0.5204,0.5204,0.5203,0.5203,0.5203,0.5202,0.5201,0.5201,0.52,0.52,0.5198,0.5197,0.5197,0.5197,0.5196,0.5196,0.5196,0.5196,0.5198,0.5196,0.5196,0.5196,0.5196,0.5196,0,0.5202,0.5202,0.5201,0.5201,0.5201,0.5201,0.5201,0.5201,0.52,0.52,0.5199,0.5198,0.5197,0.5197,0.5196,0.5195,0.5195,0.5195,0.5195,0.5195,0.5196,0.5196,0.5195,0.5195,0.5195,0.5195,0.5195,0.5195,0.52,0.5199,0.5199,0.5198,0.5199,0.5198,0.5198,0.5198,0.5198,0.5197,0.5196,0.5196,0.5196,0.5195,0.5194,0.5194,0.5194,0.5194,0.5194,0.5195,0.5195,0.5195,0.5195,0.5194,0.5194,0.5192,0.5192,0.5192]}]]